User: anonymous   Login
Location: Bonny Doon Airfield
(37.0704°N, 122.1252°W)
Time: 03:38:24
(UTC-07:00)
Language:

AIST 2D - Orbit

View from above orbital plane
View from above orbital plane
View from above satellite
View from above satellite

Ground track
Ground track

The orbit data is extracted from the following two-line orbital elements,

1 41465U 16026B   18114.78235404  .00002326  00000-0  76313-4 0  9990
2 41465  97.2267  15.6402 0011307 177.9889 267.2246 15.32549722111163
Epoch (UTC): 24 April 2018 18:46:35
Eccentricity: 0.0011307
inclination: 97.2267°
perigee height: 460 km
apogee height: 476 km
right ascension of ascending node: 15.6402°
argument of perigee: 177.9889°
revolutions per day: 15.32549722
mean anomaly at epoch: 267.2246°
orbit number at epoch: 11116

The dashed part of the orbit path shows where the satellite is in the earth's shadow,  

DLR